Total_Precipitation_Accumulation
2.35 2.59 2.69 3.01 2.93 2.91 3.18 3.57 3.52 3.67 3.67 3.61 3.36 2.98 2.90 2.72 2.45 2.53 2.61 2.50 2.42 2.70 3.29 3.72 3.60 3.36 3.06 2.99 2.93 2.74 2.41 2.19 2.01 1.69 1.48 1.51 1.49 1.37 1.27 1.20 1.11 1.01 0.82
2.92 3.22 3.27 3.40 3.20 3.14 3.49 3.77 3.84 4.31 4.22 4.03 3.50 3.20 3.04 2.94 2.67 2.54 2.72 2.83 2.50 2.46 2.91 3.69 3.99 3.80 3.59 3.51 3.28 2.99 2.67 2.40 2.30 1.87 1.53 1.45 1.51 1.50 1.41 1.34 1.14 0.98 0.79
3.39 3.66 3.60 3.48 3.46 3.47 3.75 3.99 4.13 4.27 4.01 3.82 3.64 3.42 3.25 3.01 2.60 2.59 2.63 2.83 2.67 2.50 2.81 3.26 3.74 3.87 3.98 4.02 3.75 3.40 2.95 2.55 2.28 1.95 1.55 1.41 1.46 1.47 1.40 1.33 1.15 0.94 0.72
3.48 3.93 3.69 3.49 3.81 3.65 3.81 4.35 4.40 4.36 4.31 4.07 3.86 3.51 3.29 3.11 2.61 2.48 2.46 2.74 3.10 2.68 2.79 3.19 3.43 3.55 4.10 4.41 4.34 4.14 3.61 3.02 2.47 2.08 1.71 1.54 1.55 1.50 1.39 1.27 1.18 0.96 0.71
3.32 3.69 3.55 3.59 3.64 3.92 4.00 3.72 4.37 4.49 4.37 4.13 3.52 3.32 2.95 2.81 2.69 2.39 2.51 2.60 2.97 2.80 2.78 2.88 3.20 3.39 4.01 4.74 5.12 5.01 4.54 3.90 3.17 2.67 2.37 2.19 2.15 1.96 1.63 1.41 1.23 1.06 0.81
3.18 3.64 3.44 3.42 3.48 3.87 3.95 3.94 4.37 4.37 4.10 4.08 3.26 3.02 2.85 2.44 2.42 2.47 2.32 2.50 2.69 2.34 2.52 2.84 3.31 2.96 3.25 3.76 4.70 5.18 5.18 4.88 4.30 3.95 3.73 3.38 3.08 2.64 2.02 1.60 1.35 1.20 0.99
3.06 3.52 3.21 3.53 3.44 3.60 3.67 3.68 4.02 4.15 3.80 3.87 3.84 3.36 2.66 2.23 2.19 2.20 2.24 2.41 2.38 2.44 2.96 3.48 3.62 3.50 3.28 3.14 3.53 4.22 5.05 5.34 4.87 4.42 4.32 4.22 4.04 3.40 2.57 2.00 1.62 1.36 1.21
2.87 3.03 3.27 3.17 3.20 3.39 3.40 3.48 3.83 3.84 3.45 3.58 3.83 3.90 3.16 2.80 2.29 1.77 2.12 2.25 2.31 2.64 2.83 3.00 3.36 3.70 3.77 4.04 3.47 3.37 4.11 4.83 4.98 4.70 4.36 4.38 4.27 3.55 2.83 2.48 2.06 1.65 1.49
2.67 2.76 2.95 2.97 2.97 2.86 3.10 3.35 3.36 3.42 3.38 3.35 3.40 3.83 3.53 3.10 2.61 2.04 1.93 2.03 2.33 2.58 2.58 2.77 2.82 3.14 3.38 4.00 4.04 3.57 3.40 3.63 4.22 4.84 4.77 4.43 4.12 3.49 3.01 2.83 2.59 2.18 1.91
2.44 2.53 2.59 2.59 2.62 2.59 2.89 2.67 2.76 3.11 3.37 3.23 3.15 3.10 3.16 3.29 3.16 2.52 2.03 1.94 2.17 2.33 2.33 2.29 2.52 2.87 2.97 3.32 3.69 3.66 3.32 3.00 3.24 3.92 4.49 4.50 4.14 3.53 3.20 3.19 3.35 3.12 2.58
2.33 2.25 2.39 2.45 2.41 2.35 2.46 2.53 2.85 2.87 3.02 3.03 3.02 3.01 3.11 3.15 2.98 2.79 2.43 2.26 2.20 1.97 1.96 2.11 2.32 2.67 2.85 3.07 3.42 3.49 3.54 3.00 2.92 3.05 3.45 3.86 4.01 3.90 3.60 3.56 3.90 3.99 3.59
2.17 2.09 2.16 2.37 2.28 2.23 2.35 2.43 2.55 2.58 2.69 2.80 2.79 2.79 3.02 2.90 2.83 2.93 2.63 2.46 2.36 2.04 1.98 2.08 2.20 2.43 2.58 2.74 2.66 2.97 3.03 2.75 2.62 2.52 2.49 2.78 3.18 3.48 3.63 3.80 4.20 4.40 4.34
1.85 1.83 1.93 2.10 2.07 2.07 2.17 2.33 2.36 2.47 2.60 2.64 2.57 2.58 2.66 2.65 2.71 2.85 2.96 2.68 2.47 2.12 2.10 2.01 2.04 2.29 2.33 2.60 2.57 2.47 2.23 2.17 2.05 1.95 1.98 2.06 2.26 2.57 2.82 3.19 3.74 4.14 4.30
1.64 1.71 1.79 1.80 1.87 1.93 1.94 2.31 2.35 2.44 2.56 2.48 2.33 2.68 2.59 2.38 2.55 2.69 2.95 3.18 2.96 2.52 2.46 2.31 2.08 2.03 2.16 2.28 2.31 2.12 1.76 1.71 1.57 1.52 1.53 1.58 1.69 1.82 2.00 2.21 2.54 2.81 3.11
1.81 1.82 1.79 1.81 1.90 2.04 2.19 2.45 2.50 2.51 2.60 2.52 2.56 2.70 2.55 2.35 2.35 2.42 2.85 3.22 3.41 3.05 2.78 2.60 2.39 2.07 2.02 1.99 2.07 1.84 1.79 1.65 1.42 1.38 1.33 1.27 1.31 1.43 1.58 1.67 1.76 1.89 1.98
2.00 1.98 1.97 1.96 1.93 2.02 2.23 2.44 2.49 2.50 2.60 2.63 2.66 2.77 2.74 2.54 2.53 2.53 2.81 3.13 3.37 3.48 3.05 2.72 2.66 2.33 2.12 1.88 2.05 1.86 1.77 1.73 1.47 1.35 1.30 1.19 1.14 1.17 1.21 1.29 1.35 1.40 1.48
1.89 1.83 1.79 1.81 1.84 1.94 2.08 2.17 2.13 2.21 2.25 2.40 2.34 2.47 2.61 2.73 2.70 2.72 2.88 3.04 3.29 3.55 3.16 2.91 3.04 2.85 2.54 2.25 2.10 2.02 1.82 1.68 1.54 1.42 1.22 1.16 1.13 1.11 1.15 1.19 1.19 1.24 1.30
1.59 1.49 1.54 1.59 1.59 1.62 1.73 1.72 1.73 1.87 2.05 2.21 2.34 2.47 2.39 2.50 2.52 2.55 2.76 3.00 3.25 3.48 3.33 3.23 3.38 3.31 3.00 2.62 2.46 2.31 1.95 1.77 1.68 1.65 1.40 1.24 1.18 1.14 1.12 1.17 1.20 1.20 1.21
1.28 1.29 1.37 1.43 1.42 1.46 1.46 1.46 1.57 1.70 1.84 2.02 2.17 2.19 2.10 2.23 2.25 2.43 2.53 2.70 2.94 3.20 3.29 3.23 3.34 3.38 3.11 2.87 2.74 2.38 2.13 2.09 1.78 1.78 1.72 1.44 1.25 1.19 1.20 1.20 1.20 1.22 1.22
1.24 1.27 1.38 1.45 1.44 1.49 1.53 1.66 1.74 1.79 1.89 1.90 1.86 1.83 1.79 1.87 2.00 2.26 2.37 2.47 2.65 2.88 3.01 3.06 3.20 3.24 3.11 3.03 2.98 2.63 2.41 2.30 2.03 1.71 1.72 1.53 1.42 1.34 1.27 1.21 1.21 1.25 1.32
1.23 1.30 1.42 1.50 1.57 1.54 1.46 1.66 1.79 1.73 1.81 1.80 1.70 1.53 1.44 1.53 1.66 1.82 1.79 2.04 2.28 2.48 2.61 2.77 2.97 3.18 3.04 3.05 2.89 2.75 2.54 2.44 2.32 2.01 1.95 1.69 1.54 1.39 1.25 1.19 1.18 1.23 1.36
1.29 1.28 1.28 1.39 1.38 1.15 1.27 1.47 1.59 1.61 1.71 1.74 1.62 1.47 1.35 1.36 1.42 1.50 1.55 1.63 1.82 2.03 2.23 2.51 2.71 2.89 2.76 2.75 2.88 2.85 2.75 2.54 2.45 2.31 2.38 2.24 1.97 1.81 1.51 1.22 1.18 1.18 1.27
1.33 1.34 1.32 1.35 1.33 1.28 1.37 1.36 1.36 1.45 1.57 1.58 1.63 1.63 1.36 1.13 1.29 1.28 1.38 1.39 1.46 1.61 1.83 2.16 2.34 2.41 2.57 2.60 2.88 2.95 3.05 2.92 2.74 2.64 2.76 2.72 2.56 2.36 1.72 1.51 1.45 1.22 1.15
1.36 1.38 1.39 1.37 1.43 1.42 1.43 1.30 1.32 1.32 1.43 1.50 1.52 1.50 1.47 1.40 1.32 1.31 1.34 1.35 1.24 1.30 1.48 1.53 1.70 2.00 2.50 2.79 2.81 2.86 3.11 3.08 2.84 2.74 2.81 2.89 2.70 2.59 2.07 1.64 1.43 1.16 1.04
1.37 1.35 1.35 1.31 1.32 1.41 1.47 1.34 1.30 1.27 1.41 1.47 1.48 1.44 1.40 1.39 1.44 1.31 1.34 1.32 1.24 1.21 1.28 1.39 1.50 1.72 2.02 2.35 2.55 2.62 2.71 2.84 2.86 2.80 2.83 2.94 2.86 2.75 2.71 2.35 1.74 1.37 1.09
1.53 1.49 1.41 1.38 1.36 1.39 1.41 1.24 1.18 1.15 1.28 1.36 1.44 1.36 1.25 1.18 1.25 1.22 1.28 1.35 1.23 1.20 1.27 1.28 1.28 1.38 1.54 1.74 1.85 1.82 1.96 2.13 2.30 2.48 2.44 2.66 2.90 2.96 3.14 3.05 2.48 1.86 1.46